Weather History for Edinburg, TX

Change the Weather History Date:

Sunday, October 13, 2013

  Actual Average (KMFE) Record (KMFE)
Temperature  
Mean Temperature 85 °F 78 °F  
Max Temperature 95 °F 88 °F 97 °F (1962)
Min Temperature 76 °F 68 °F 46 °F (1944)
Degree Days  
Heating Degree Days 0 0  
Month to date heating degree days 0  
Since 1 July heating degree days 0  
Cooling Degree Days 20 13  
Month to date cooling degree days 183  
Year to date cooling degree days 3982  
Growing Degree Days 35 (Base 50)    
Moisture  
Dew Point 72 °F    
Average Humidity 69    
Maximum Humidity 91    
Minimum Humidity 43    
Precipitation  
Precipitation 0.00 in 0.07 in 0.97 in (1958)
Month to date precipitation 0.98  
Year to date precipitation 19.02  
Sea Level Pressure  
Sea Level Pressure 30.00 in    
Wind  
Wind Speed 4 mph (SE)    
Max Wind Speed 20 mph    
Max Gust Speed 24 mph    
Visibility 8 miles    
Events      
T = Trace of Precipitation, MM = Missing Value Source: NWS Daily Summary

Daily Weather History Graph

Daily Weather History Graph

Search for Another Location

Airport:

Trip Planner

Search our weather history database for the weather conditions in past years. The results will help you decide how hot, cold, wet, or windy it might be!

Date:

Astronomy

Oct. 13, 2013 Rise Set
Actual Time 7:30 AM CDT 7:06 PM CDT
Civil Twilight 7:07 AM CDT 7:29 PM CDT
Nautical Twilight 6:40 AM CDT 7:56 PM CDT
Astronomical Twilight 6:13 AM CDT 8:23 PM CDT
Moon 3:31 PM CDT (10/13) 2:12 AM CDT (10/13)
Length of Visible Light 12h 21m
Length of Day
11h 35m
Waxing Gibbous, 69% of the Moon is Illuminated
Oct 13
Waxing Gibbous
Oct 18
Full
Oct 26
Last Quarter
Nov 3
New
Nov 9
First Quarter

Hourly Weather History & Observations

Time (CDT) Temp. Heat Index Dew Point Humidity Pressure Visibility Wind Dir Wind Speed Gust Speed Precip Events Conditions
12:15 AM 80.1 °F 84.6 °F 74.1 °F 82% 29.99 in 7.0 mi Calm Calm - N/A   Mostly Cloudy
12:35 AM 79.9 °F - 73.9 °F 82% 29.99 in 7.0 mi Calm Calm - N/A   Mostly Cloudy
12:55 AM 80.6 °F 85.9 °F 74.5 °F 82% 29.99 in 7.0 mi Calm Calm - N/A   Overcast
1:15 AM 80.2 °F 85.2 °F 74.5 °F 83% 29.99 in 7.0 mi Calm Calm - N/A   Mostly Cloudy
1:35 AM 79.9 °F - 74.7 °F 84% 29.99 in 7.0 mi Calm Calm - N/A   Mostly Cloudy
1:55 AM 79.7 °F - 74.7 °F 84% 29.99 in 7.0 mi Calm Calm - N/A   Scattered Clouds
2:15 AM 79.2 °F - 74.7 °F 86% 29.99 in 7.0 mi Calm Calm - N/A   Clear
2:35 AM 78.8 °F - 74.5 °F 87% 29.99 in 7.0 mi Calm Calm - N/A   Clear
2:55 AM 78.6 °F - 74.5 °F 87% 29.99 in 5.0 mi Calm Calm - N/A   Clear
3:15 AM 78.3 °F - 74.3 °F 88% 29.99 in 7.0 mi Calm Calm - N/A   Clear
3:35 AM 77.9 °F - 74.3 °F 89% 29.99 in 5.0 mi Calm Calm - N/A   Scattered Clouds
3:55 AM 77.5 °F - 73.9 °F 89% 29.99 in 5.0 mi Calm Calm - N/A   Scattered Clouds
4:15 AM 77.2 °F - 73.6 °F 89% 29.98 in 5.0 mi Calm Calm - N/A   Clear
4:35 AM 77.2 °F - 73.8 °F 89% 29.99 in 5.0 mi Calm Calm - N/A   Clear
4:55 AM 77.0 °F - 73.6 °F 89% 29.99 in 5.0 mi Calm Calm - N/A   Clear
5:15 AM 77.4 °F - 74.3 °F 90% 29.99 in 5.0 mi Calm Calm - N/A   Clear
5:35 AM 77.4 °F - 74.3 °F 90% 30.00 in 5.0 mi Calm Calm - N/A   Scattered Clouds
5:55 AM 77.4 °F - 74.3 °F 90% 30.00 in 5.0 mi Calm Calm - N/A   Scattered Clouds
6:15 AM 77.4 °F - 74.3 °F 90% 30.00 in 5.0 mi Calm Calm - N/A   Scattered Clouds
6:35 AM 76.6 °F - 73.4 °F 90% 30.01 in 4.0 mi Calm Calm - N/A   Scattered Clouds
6:55 AM 76.3 °F - 73.4 °F 91% 30.01 in 5.0 mi Calm Calm - N/A   Scattered Clouds
7:15 AM 76.5 °F - 73.4 °F 90% 30.02 in 5.0 mi Calm Calm - N/A   Scattered Clouds
7:35 AM 76.6 °F - 73.6 °F 90% 30.02 in 4.0 mi Calm Calm - N/A   Scattered Clouds
7:55 AM 76.8 °F - 73.8 °F 90% 30.03 in 3.0 mi Calm Calm - N/A   Scattered Clouds
8:15 AM 78.1 °F - 75.2 °F 91% 30.04 in 3.0 mi Calm Calm - N/A   Scattered Clouds
8:35 AM 79.3 °F - 76.1 °F 90% 30.04 in 4.0 mi Calm Calm - N/A   Scattered Clouds
8:55 AM 80.6 °F 86.8 °F 76.5 °F 87% 30.05 in 5.0 mi Calm Calm - N/A   Clear
9:15 AM 83.3 °F 91.8 °F 76.3 °F 79% 30.05 in 7.0 mi Calm Calm - N/A   Clear
9:35 AM 84.2 °F 92.6 °F 75.4 °F 75% 30.06 in 5.0 mi Calm Calm - N/A   Haze
9:55 AM 83.7 °F 91.3 °F 74.8 °F 75% 30.06 in 5.0 mi Calm Calm - N/A   Haze
10:15 AM 86.9 °F 95.4 °F 74.1 °F 66% 30.07 in 7.0 mi SSE 11.5 mph 17.3 mph N/A   Scattered Clouds
10:55 AM 88.0 °F 95.6 °F 72.9 °F 61% 30.07 in 7.0 mi Calm Calm - N/A   Scattered Clouds
11:15 AM 89.8 °F 97.0 °F 72.3 °F 56% 30.06 in 7.0 mi SE 12.7 mph 19.6 mph N/A   Mostly Cloudy
11:35 AM 90.5 °F 96.0 °F 70.3 °F 51% 30.05 in 7.0 mi SSE 15.0 mph - N/A   Mostly Cloudy
11:55 AM 91.4 °F 97.3 °F 70.5 °F 50% 30.05 in 7.0 mi SSE 11.5 mph - N/A   Scattered Clouds
12:15 PM 91.6 °F 97.7 °F 70.5 °F 50% 30.04 in 7.0 mi SE 16.1 mph 19.6 mph N/A   Scattered Clouds
12:35 PM 93.0 °F 98.4 °F 69.6 °F 46% 30.04 in 7.0 mi SSE 10.4 mph 16.1 mph N/A   Scattered Clouds
12:55 PM 93.9 °F 98.6 °F 68.2 °F 43% 30.03 in 7.0 mi SE 12.7 mph 18.4 mph N/A   Scattered Clouds
1:15 PM 93.2 °F 98.8 °F 69.4 °F 46% 30.02 in 10.0 mi SE 13.8 mph 20.7 mph N/A   Scattered Clouds
1:35 PM 94.3 °F 101.0 °F 70.5 °F 46% 30.00 in 7.0 mi ESE 11.5 mph 16.1 mph N/A   Mostly Cloudy
1:55 PM 93.9 °F 100.8 °F 71.1 °F 47% 29.99 in 10.0 mi ESE 16.1 mph 21.9 mph N/A   Scattered Clouds
2:15 PM 93.9 °F 100.3 °F 70.5 °F 46% 29.97 in 10.0 mi SE 15.0 mph 21.9 mph N/A   Scattered Clouds
2:35 PM 93.7 °F 100.5 °F 70.5 °F 47% 29.96 in 10.0 mi SE 13.8 mph 24.2 mph N/A   Scattered Clouds
2:55 PM 94.8 °F 100.3 °F 69.1 °F 43% 29.95 in 10.0 mi SE 18.4 mph 23.0 mph N/A   Scattered Clouds
3:15 PM 92.5 °F 96.9 °F 68.4 °F 45% 29.94 in 10.0 mi ESE 16.1 mph 20.7 mph N/A   Mostly Cloudy
3:35 PM 93.7 °F 99.3 °F 69.4 °F 45% 29.93 in 10.0 mi ESE 15.0 mph 21.9 mph N/A   Mostly Cloudy
3:55 PM 93.2 °F 97.7 °F 68.5 °F 44% 29.93 in 10.0 mi SE 19.6 mph 24.2 mph N/A   Scattered Clouds
4:15 PM 93.0 °F 97.9 °F 68.7 °F 45% 29.93 in 10.0 mi SE 13.8 mph 18.4 mph N/A   Scattered Clouds
4:35 PM 92.7 °F 96.2 °F 67.3 °F 43% 29.93 in 10.0 mi SSE 11.5 mph 19.6 mph N/A   Scattered Clouds
4:55 PM 93.9 °F 98.6 °F 68.2 °F 43% 29.93 in 10.0 mi SE 18.4 mph 23.0 mph N/A   Scattered Clouds
5:15 PM 92.8 °F 96.6 °F 67.1 °F 43% 29.93 in 10.0 mi SSE 13.8 mph - N/A   Scattered Clouds
5:35 PM 92.3 °F 96.5 °F 68.0 °F 45% 29.93 in 10.0 mi SSE 16.1 mph 23.0 mph N/A   Clear
5:55 PM 91.4 °F 94.9 °F 67.5 °F 45% 29.94 in 10.0 mi SSE 12.7 mph - N/A   Clear
6:15 PM 90.5 °F 95.1 °F 68.9 °F 49% 29.94 in 10.0 mi SSE 15.0 mph - N/A   Clear
6:35 PM 89.6 °F 94.3 °F 69.1 °F 51% 29.95 in 10.0 mi SSE 11.5 mph 17.3 mph N/A   Clear
6:55 PM 88.5 °F 93.5 °F 69.8 °F 54% 29.95 in 7.0 mi SE 12.7 mph - N/A   Clear
7:15 PM 87.3 °F 92.4 °F 70.2 °F 57% 29.96 in 7.0 mi SE 12.7 mph - N/A   Clear
7:35 PM 86.4 °F 91.1 °F 70.2 °F 58% 29.97 in 10.0 mi SE 11.5 mph - N/A   Clear
7:55 PM 85.6 °F 90.4 °F 70.2 °F 60% 29.97 in 10.0 mi SE 12.7 mph - N/A   Clear
8:15 PM 85.1 °F 90.4 °F 71.1 °F 63% 29.98 in 10.0 mi SE 11.5 mph - N/A   Clear
8:35 PM 84.6 °F 90.0 °F 71.6 °F 65% 29.99 in 10.0 mi SE 12.7 mph - N/A   Scattered Clouds
8:55 PM 83.8 °F 89.2 °F 72.0 °F 67% 30.00 in 10.0 mi SE 10.4 mph - N/A   Scattered Clouds
9:15 PM 83.3 °F 88.7 °F 72.3 °F 69% 30.02 in 7.0 mi SE 8.1 mph - N/A   Scattered Clouds
9:35 PM 82.6 °F 87.8 °F 72.5 °F 71% 30.02 in 10.0 mi SE 11.5 mph - N/A   Scattered Clouds
9:55 PM 82.2 °F 87.6 °F 72.7 °F 73% 30.02 in 10.0 mi SE 3.5 mph - N/A   Scattered Clouds
10:15 PM 81.7 °F 86.7 °F 72.7 °F 74% 30.02 in 7.0 mi Calm Calm - N/A   Clear
10:35 PM 81.1 °F 86.0 °F 72.9 °F 76% 30.02 in 10.0 mi Calm Calm - N/A   Scattered Clouds
10:55 PM 80.8 °F 85.4 °F 72.9 °F 77% 30.02 in 10.0 mi Calm Calm - N/A   Clear
11:15 PM 80.6 °F 85.2 °F 73.0 °F 78% 30.02 in 10.0 mi Calm Calm - N/A   Clear
11:35 PM 80.1 °F 84.2 °F 72.9 °F 79% 30.03 in 10.0 mi Calm Calm - N/A   Scattered Clouds
11:55 PM 79.7 °F - 72.9 °F 80% 30.03 in 10.0 mi Calm Calm - N/A   Scattered Clouds